FALCON 9 DEB (45799 NORAD) Tracking and Keplerian Element Data

This shows tracking and keplerian element data for the satellite.

Feedback or suggestion? Click here.




ElementValue
Catalog45799
NameFALCON 9 DEB
Epoch Orbit165
Epoch Day174.66112025
Epoch Year2020
RAAN250.9591
Inclination53.0284
Eccentricity0.0050095
Argument of Perigee72.4726
Mean Anonmoly288.178
Mean Motion16.2514961
Decay Rate0.05371709
L11 45799U 20038BT 20174.66112025 .05371709 12067-4 12627-2 0 9996
L22 45799 53.0284 250.9591 0050095 72.4726 288.1780 16.25149610 1657

Live tracking and technical data element details for FALCON 9 DEB (NORAD 45799). FALCON 9 DEB can be tracked NOW for your location showing map with azimuth and elevation plus other details from your city location.

Track the satellite on the map from your city or location and see movement details for azimuth, elevation, latitude, longitude, range, height, and movement on the map or in text.







IsCatalogInMostPopularTable: catalog: 45799, numindb: 19
Update: records affected: 1



GetName: 45799 FALCON 9 DEB

Hit Count: updated at: Fri, 07 Aug 2020 23:19:36 GMT